星链-4015 (STARLINK-4015 )

导读 | 星芒AI

STARLINK-4015 是 SpaceX Starlink 项目中的一颗低轨通信卫星,属于第 40 批发射的星链卫星群。该卫星旨在为全球用户提供高速互联网服务,尤其关注网络覆盖不足的地区。它运行在约 550 公里的轨道高度,具备先进的通信技术和自动避碰系统,以确保运行安全。作为星链星座的一部分,STARLINK-4015 有助于提升全球互联网接入的普及性和稳定性。

基本信息
目录编号:
52616
目录名称:
STARLINK-4015
国际标识:
2022-052U
轨道中心:
EARTH
卫星名称:
星链-4015
卫星全名:
星链-4015 (STARLINK-4015 )
卫星状态:
在轨 (已飞行1317 天)
发射日期:
2022-05-14 UTC
国别 :
美国 (US)
星等 :
--
轨道信息
数据来源 国际轨道数据
星历时间: 2025-12-21T06:00:02+0800
7小时前
查看轨道信息
半长轴: 6849.662km
偏心率: 0.0001018
轨道倾角: 53.220°
近地点辐角 74.018°
升交点赤经 261.491°
平近点角 162.299°
近地点: 470.827km
远地点: 472.223km
周期: 94.029分钟
每日圈数: 15.31437
详细信息
固有亮度:
5
最大亮度:
2.5
卫星平台:
Starlink v1.5
覆盖范围:
全球
运营商:
太空探索技术公司
运营商所在国:
美国
制造商(研发单位):
太空探索技术公司
制造商所在国:
美国
使用方式:
暂无
卫星简介
星链(Starlink)计划是由太空探索技术公司(SpaceX)提出的一个巨型低轨卫星互联网星座项目,计划在2019年至2024年间在太空搭建由约1.2万颗卫星组成的“星链”网络,其中1584颗将部署在地球上空550千米处的近地轨道,并从2020年开始工作。该卫星仍在工作。
2D轨道图
3D轨道图
轨道高度分析图
轨道倾角分析图
轨道综合分析图
查看轨道综合分析图